Terminal Aerodrome Forecast
Issued by NWS Jacksonville, FL

Home | Current Version | Previous Version | Text Only | Print | Product List | Glossary On
Versions: 1 2 3 4 5 6 7 8 9 10 11 12 13 14 15 16 17 18 19 20 21 22 23 24 25
000
FTUS42 KJAX 181134
TAFSSI
TAF
KSSI 181134Z 1812/1912 VRB03KT 6SM HZ SCT020 BKN040 OVC080
      TEMPO 1812/1813 5SM BR BKN005
     FM181400 21005KT P6SM SCT007 BKN015 BKN120
     FM181600 18005KT P6SM SCT025 BKN040
     FM181800 15008KT P6SM VCSH SCT025 BKN040
     FM190600 VRB03KT P6SM OVC050 PROB30 1906/1912 P6SM -RA OVC050=

USA.gov is the U.S. government's official web portal to all federal, state and local government web resources and services.